GW3497 Weather Reports


time (UTC)temp
F
wind
direction
speed
knots
gust
knots
rain 1hr
in
rain 24hr
in
rain mn
in
humidity
%
barometer
mb
20260510162030 58 13 4.3 9.6 0.00 0.00 0.00 53 1015.2
20260510161518 58 32 7.0 11.3 0.00 0.00 0.00 53 1015.2
20260510161029 0 58 7.0 11.3 0.00 0.00 0.00 1015.3
20260510160807 0 32 5.2 5.2 0.00 0.00 0.00 1015.4
20260510160048 0 41 4.3 11.3 0.00 0.00 0.00 1015.4
20260510155512 0 86 8.7 11.3 0.00 0.00 0.00 1015.4
20260510155012 57 99 8.7 8.7 0.00 0.00 0.00 61 1015.5
20260510154515 57 56 5.2 6.1 0.00 0.00 0.00 61 1015.6
20260510154133 0 73 8.7 9.6 0.00 0.00 0.00 1015.7
20260510154106 0 73 8.7 8.7 0.00 0.00 0.00 1015.7
20260510153037 57 78 3.5 11.3 0.00 0.00 0.00 65 1015.8
20260510152503 57 48 10.4 11.3 0.00 0.00 0.00 65 1015.8
20260510152323 56 66 6.1 7.8 0.00 0.00 0.00 65 1015.9
20260510151456 56 66 6.1 7.8 0.00 0.00 0.00 65 1015.9
20260510150952 56 48 2.6 6.1 0.00 0.00 0.00 65 1016.0
20260510150450 55 48 4.3 6.1 0.00 0.00 0.00 64 1016.1
20260510145950 55 51 8.7 8.7 0.00 0.00 0.00 64 1016.1
20260510145452 56 51 8.7 8.7 0.00 0.00 0.00 64 1016.1
20260510144946 55 80 5.2 7.8 0.00 0.00 0.00 64 1016.1
20260510144449 55 56 5.2 8.7 0.00 0.00 0.00 64 1016.1
20260510143940 0 56 5.2 8.7 0.00 0.00 0.00 1016.2
20260510143435 55 49 5.2 7.8 0.00 0.00 0.00 68 1016.3
20260510142935 55 52 6.1 7.8 0.00 0.00 0.00 68 1016.4
20260510142432 0 58 5.2 8.7 0.00 0.00 0.00 1016.4
20260510142107 54 51 5.2 13.0 0.00 0.00 0.00 68 1016.6
20260510142019 54 71 8.7 8.7 0.00 0.00 0.00 68 1016.4
20260510140932 54 73 7.8 13.0 0.00 0.00 0.00 68 1016.6
20260510140430 54 63 8.7 12.2 0.00 0.00 0.00 68 1016.5
20260510140327 0 42 5.2 8.7 0.00 0.00 0.00 1016.6
20260510135424 53 72 6.1 10.4 0.00 0.00 0.00 69 1016.7
20260510135053 53 20 8.7 13.9 0.00 0.00 0.00 69 1016.7
20260510134958 53 48 8.7 13.9 0.00 0.00 0.00 69 1016.6
20260510133902 54 0 8.7 13.0 0.00 0.00 0.00 68 1016.8
20260510133403 54 47 7.0 11.3 0.00 0.00 0.00 68 1016.8
20260510133232 54 69 11.3 11.3 0.00 0.00 0.00 68 1016.8
20260510132358 54 47 5.2 6.1 0.00 0.00 0.00 68 1016.8
20260510132046 54 42 5.2 9.6 0.00 0.00 0.00 69 1016.8
20260510131950 0 42 5.2 7.8 0.00 0.00 0.00 1016.9
20260510130855 54 65 9.6 9.6 0.00 0.00 0.00 69 1016.9
20260510130357 54 65 5.2 9.6 0.00 0.00 0.00 71 1016.9
20260510125851 54 66 7.0 9.6 0.00 0.00 0.00 71 1017.0
20260510125350 54 24 8.7 9.6 0.00 0.00 0.00 70 1016.9
20260510124849 54 44 7.0 10.4 0.00 0.00 0.00 71 1017.1
20260510124352 54 66 4.3 10.4 0.00 0.00 0.00 71 1017.2
20260510123853 54 51 7.0 7.8 0.00 0.00 0.00 71 1017.2
20260510123351 54 59 5.2 5.2 0.00 0.00 0.00 71 1017.1
20260510123217 54 63 5.2 6.1 0.00 0.00 0.00 72 1017.1
20260510122348 53 63 5.2 8.7 0.00 0.00 0.00 72 1017.2
20260510121848 53 58 7.8 11.3 0.00 0.00 0.00 72 1017.2
20260510121344 53 61 7.8 15.6 0.00 0.00 0.00 72 1017.3
20260510120844 54 62 9.6 15.6 0.00 0.00 0.00 71 1017.4
20260510120344 54 49 9.6 15.6 0.00 0.00 0.00 71 1017.5
20260510115845 55 49 10.4 11.3 0.00 0.00 0.00 72 1017.4
20260510115344 55 44 5.2 5.2 0.00 0.00 0.00 72 1017.5
20260510114842 55 63 4.3 10.4 0.00 0.00 0.00 72 1017.6
20260510114347 55 63 7.0 10.4 0.00 0.00 0.00 72 1017.6
20260510114201 55 49 3.5 9.6 0.00 0.00 0.00 72 1017.7
20260510113345 55 42 7.8 9.6 0.00 0.00 0.00 72 1017.7
20260510112845 55 24 9.6 13.0 0.00 0.00 0.00 75 1017.7
20260510112347 55 24 9.6 13.0 0.00 0.00 0.00 75 1017.7
20260510111845 55 44 8.7 8.7 0.00 0.00 0.00 75 1017.8
20260510111343 55 0.0 0.0 0.00 0.00 0.00 77 1017.8
20260510110844 54 62 7.8 7.8 0.00 0.00 0.00 77 1017.8
20260510110343 54 62 7.8 7.8 0.00 0.00 0.00 77 1017.9
20260510105843 54 54 5.2 11.3 0.00 0.00 0.00 77 1018.0
20260510105342 0 51 11.3 11.3 0.00 0.00 0.00 1018.0
20260510104842 53 37 4.3 10.4 0.00 0.00 0.00 78 1018.1
20260510104343 53 55 6.1 14.8 0.00 0.00 0.00 78 1018.0
20260510103841 52 44 7.8 14.8 0.00 0.75 0.00 78 1018.1
20260510103339 52 71 8.7 13.0 0.00 1.01 0.00 79 1018.0
20260510102838 52 52 7.8 13.9 0.00 1.01 0.00 79 1018.1
20260510102340 52 52 6.1 13.9 0.00 1.01 0.00 79 1018.2
20260510101835 52 24 9.6 15.6 0.00 1.01 0.00 79 1018.1
20260510101333 52 68 7.8 15.6 0.00 1.01 0.00 79 1018.1
20260510100833 52 55 7.0 15.6 0.00 1.01 0.00 79 1018.1
20260510100334 52 55 9.6 15.6 0.00 1.01 0.00 79 1018.2
20260510095930 52 58 7.0 14.8 0.00 1.01 0.00 80 1018.1
20260510095915 52 21 6.1 16.5 0.00 1.01 0.00 80 1018.0
20260510094834 52 62 6.1 15.6 0.00 1.01 0.00 80 1018.1
20260510094338 52 47 7.0 15.6 0.00 1.01 0.00 80 1018.1
20260510093835 52 48 7.8 15.6 0.00 1.01 0.00 80 1018.2
20260510093335 52 20 5.2 11.3 0.00 1.01 0.00 80 1018.2
20260510092834 52 48 5.2 13.9 0.00 1.01 0.00 80 1018.2
20260510092330 52 45 8.7 13.9 0.00 1.01 0.00 79 1018.2
20260510091832 52 48 5.2 12.2 0.00 1.01 0.00 82 1018.2
20260510091334 52 75 4.3 11.3 0.00 1.01 0.00 83 1018.2
20260510090831 52 62 5.2 12.2 0.00 1.01 0.00 83 1018.3
20260510090329 51 0 7.0 15.6 0.00 1.01 0.00 83 1018.4
20260510085830 51 54 6.1 15.6 0.00 1.01 0.00 84 1018.4
20260510085328 51 61 5.2 14.8 0.00 1.01 0.00 83 1018.4
20260510084826 51 83 7.8 13.9 0.00 1.01 0.00 84 1018.5
20260510084327 51 0 5.2 11.3 0.00 1.01 0.00 84 1018.5
20260510083827 51 17 4.3 10.4 0.00 1.01 0.00 84 1018.5
20260510083326 51 56 6.1 16.5 0.00 1.01 0.00 85 1018.4
20260510083206 50 42 7.8 16.5 0.00 1.01 0.00 85 1018.5
20260510082326 50 72 6.1 13.0 0.00 1.01 0.00 85 1018.5
20260510081827 50 68 5.2 14.8 0.00 1.01 0.00 85 1018.5
20260510081327 50 42 6.1 14.8 0.00 1.01 0.00 85 1018.5
20260510080827 50 48 7.0 14.8 0.00 1.01 0.00 85 1018.6
20260510080634 50 78 4.3 10.4 0.00 1.01 0.00 85 1018.6
20260510075826 50 42 6.1 12.2 0.00 1.01 0.00 85 1018.6
20260510075628 50 55 5.2 13.9 0.00 1.01 0.00 85 1018.6
20260510074824 50 34 7.0 15.6 0.00 1.01 0.00 85 1018.6
20260510074323 50 47 4.3 15.6 0.00 1.01 0.00 85 1018.5
20260510073824 49 61 7.8 12.2 0.00 1.01 0.00 85 1018.6
20260510073325 49 0 4.3 14.8 0.00 1.01 0.00 85 1018.6
20260510073208 49 47 7.0 14.8 0.00 1.01 0.00 86 1018.6
20260510072325 49 35 7.0 15.6 0.00 1.01 0.00 86 1018.6
20260510071823 49 73 6.1 15.6 0.00 1.01 0.00 86 1018.6
20260510071323 49 13 7.8 13.9 0.00 1.01 0.00 86 1018.5
20260510070824 49 38 7.8 13.9 0.00 1.01 0.00 87 1018.5
20260510070323 49 30 7.0 13.0 0.00 1.01 0.00 87 1018.6
20260510065823 49 7 7.0 13.0 0.00 1.01 0.00 88 1018.3
20260510065324 49 44 5.2 13.0 0.00 1.01 0.00 88 1018.3
20260510065154 49 71 7.0 13.0 0.00 1.01 0.00 88 1018.3
20260510064448 49 45 3.5 13.0 0.00 1.01 0.00 89 1018.3
20260510064422 49 45 7.0 13.0 0.00 1.01 0.00 88 1018.4
20260510063322 48 47 5.2 11.3 0.00 1.01 0.00 89 1018.3
20260510062822 48 39 7.0 12.2 0.00 1.01 0.00 89 1018.3
20260510062628 48 49 6.1 15.6 0.00 1.01 0.00 89 1018.2
20260510062147 48 34 6.1 15.6 0.00 1.01 0.00 89 1018.1
20260510061621 48 79 6.1 13.0 0.00 1.01 0.00 89 1018.2
20260510060810 48 42 7.0 13.0 0.00 1.01 0.00 89 1018.1
20260510060614 48 58 6.1 14.8 0.00 1.01 0.00 89 1018.1
20260510055810 48 59 5.2 14.8 0.00 1.01 0.00 89 1018.1
20260510055309 48 54 6.1 13.9 0.00 1.01 0.00 90 1018.2
20260510054806 48 37 6.1 15.6 0.00 1.01 0.00 90 1018.2
20260510054306 47 61 7.0 15.6 0.00 1.01 0.00 90 1018.1
20260510053806 47 59 5.2 13.0 0.00 1.01 0.00 90 1018.2
20260510053305 47 24 5.2 13.0 0.00 1.01 0.00 90 1018.1
20260510052806 47 54 6.1 13.0 0.00 1.01 0.00 90 1018.1
20260510052608 47 65 7.0 12.2 0.00 1.01 0.00 90 1018.0
20260510051804 47 41 7.0 11.3 0.00 1.01 0.00 90 1018.2
20260510051307 47 65 5.2 9.6 0.00 1.01 0.00 90 1018.3
20260510051135 47 78 4.3 11.3 0.00 1.01 0.00 90 1018.2
20260510050610 47 49 5.2 11.3 0.00 1.01 0.00 90 1018.3
20260510045803 47 47 4.3 10.4 0.00 1.01 0.00 90 1018.4
20260510045306 47 48 5.2 11.3 0.00 1.01 0.00 90 1018.3
20260510045131 47 38 6.1 11.3 0.00 1.01 0.00 90 1018.2
20260510044304 47 45 4.3 12.2 0.00 1.01 0.00 90 1018.3
20260510043802 47 47 5.2 12.2 0.00 1.01 0.00 90 1018.2
20260510043302 47 82 3.5 8.7 0.00 1.01 0.00 89 1018.3
20260510042802 47 51 3.5 9.6 0.00 1.01 0.00 90 1018.3
20260510042306 47 49 3.5 9.6 0.00 1.01 0.00 90 1018.3
20260510041804 47 51 4.3 8.7 0.00 1.01 0.00 90 1018.3
20260510041301 47 34 3.5 11.3 0.00 1.01 0.00 89 1018.3
20260510040801 47 32 4.3 11.3 0.00 1.01 0.00 89 1018.2
20260510040605 47 62 5.2 10.4 0.00 1.01 0.00 89 1018.3
20260510040146 47 44 4.3 11.3 0.00 1.01 0.00 89 1018.3
20260510035306 47 42 5.2 11.3 0.00 1.01 0.00 89 1018.2
20260510034801 47 42 4.3 10.4 0.00 1.01 0.00 89 1018.4
20260510034304 47 54 4.3 12.2 0.00 1.01 0.00 90 1018.3
20260510033801 47 357 4.3 12.2 0.00 1.01 0.00 90 1018.4
20260510033301 47 38 5.2 12.2 0.00 1.01 0.00 90 1018.4
20260510032802 47 44 7.0 12.2 0.00 1.01 0.00 90 1018.4
20260510032306 47 21 5.2 13.0 0.00 1.01 0.00 90 1018.4
20260510031800 47 65 7.8 13.0 0.00 1.01 0.00 90 1018.5
20260510031303 47 51 7.0 13.0 0.00 1.01 0.00 90 1018.6
20260510030802 47 38 5.2 13.0 0.00 1.01 0.00 90 1018.7
20260510030601 47 20 5.2 11.3 0.00 1.01 0.00 90 1018.8
20260510025800 47 32 4.3 13.0 0.00 1.01 0.00 90 1018.7
20260510025306 47 72 4.3 13.0 0.00 1.01 0.00 89 1018.6
20260510025140 47 65 4.3 13.9 0.00 1.01 0.00 90 1018.6
20260510024811 47 78 4.3 13.9 0.00 1.01 0.00 89 1018.6
20260510023801 47 52 6.1 12.2 0.00 1.01 0.00 89 1018.6
20260510023301 47 35 5.2 9.6 0.00 1.01 0.00 89 1018.7
20260510022800 47 27 5.2 11.3 0.00 1.01 0.00 89 1018.8
20260510022300 47 55 6.1 11.3 0.00 1.01 0.00 89 1018.7
20260510021801 47 55 5.2 11.3 0.00 1.01 0.00 89 1018.8
20260510021350 48 45 4.3 13.0 0.00 1.01 0.00 89 1018.8
20260510021326 47 54 6.1 13.0 0.00 1.01 0.00 89 1018.8
20260510020301 48 23 5.2 10.4 0.00 1.01 0.00 89 1018.8
20260510015800 48 21 5.2 12.2 0.00 1.01 0.00 89 1018.9
20260510015306 48 39 4.3 13.0 0.00 1.01 0.00 89 1018.9
20260510015132 48 62 6.1 13.0 0.00 1.01 0.00 89 1018.9
20260510014300 48 1 5.2 12.2 0.00 1.01 0.00 89 1018.9
20260510013801 48 41 5.2 12.2 0.00 1.01 0.00 89 1018.8
20260510013302 48 38 3.5 12.2 0.00 1.01 0.00 89 1018.8
20260510012809 48 0 6.1 13.0 0.00 1.01 0.00 88 1018.8
20260510012306 48 42 4.3 13.0 0.00 1.01 0.00 88 1018.7
20260510011803 48 49 3.5 11.3 0.00 1.01 0.00 88 1018.8
20260510011302 48 38 4.3 11.3 0.00 1.01 0.00 88 1018.9
20260510010800 48 28 4.3 10.4 0.00 1.01 0.00 88 1018.8
20260510010300 48 55 3.5 10.4 0.00 1.01 0.00 88 1018.8
20260510005759 48 24 3.5 11.3 0.00 1.01 0.00 88 1018.7
20260510005306 48 62 7.0 11.3 0.00 1.01 0.00 88 1018.7
20260510004804 48 61 4.3 12.2 0.00 1.01 0.00 88 1018.7
20260510004304 48 47 4.3 12.2 0.00 1.01 0.00 88 1018.8
20260510003802 48 56 4.3 13.0 0.00 1.01 0.00 88 1018.7
20260510003301 48 59 5.2 13.0 0.00 1.01 0.00 87 1018.8
20260510002804 48 49 4.3 10.4 0.00 1.01 0.00 87 1018.9
20260510002259 48 52 3.5 12.2 0.00 1.01 0.00 87 1018.8
20260510001758 48 56 4.3 12.2 0.00 1.01 0.00 87 1018.8
20260510001306 48 45 4.3 11.3 0.00 1.01 0.00 87 1018.8
20260510001233 48 34 5.2 11.3 0.00 1.01 0.00 86 1018.9
20260510000653 48 51 5.2 10.4 0.00 1.01 0.00 86 1018.9
20260510000131 49 39 5.2 10.4 0.00 1.01 0.00 86 1018.9
20260509235258 49 45 5.2 10.4 0.00 1.01 0.00 86 1018.9
20260509234758 49 56 3.5 9.6 0.00 1.01 0.00 85 1018.9
20260509234604 49 58 5.2 9.6 0.00 1.01 0.00 85 1019.0
20260509233759 49 59 3.5 9.6 0.00 1.01 0.00 84 1018.9
20260509233522 49 23 3.5 8.7 0.00 1.01 0.00 83 1019.0
20260509233351 49 351 2.6 8.7 0.00 1.01 0.00 84 1019.0
20260509232300 49 52 4.3 10.4 0.00 1.01 0.00 82 1019.0
20260509231759 49 338 4.3 10.4 0.00 1.01 0.00 81 1019.0
20260509231300 49 32 3.5 9.6 0.00 1.01 0.00 80 1018.9
20260509230758 49 38 4.3 9.6 0.00 1.01 0.00 79 1018.8
20260509230258 49 54 2.6 9.6 0.00 1.01 0.00 77 1018.9
20260509225757 50 27 4.3 9.6 0.00 1.01 1.01 75 1018.7
20260509225256 50 0 4.3 8.7 0.00 1.01 1.01 73 1018.8
20260509224756 50 45 3.5 6.1 0.00 1.01 1.01 71 1019.0
20260509224601 50 39 2.6 5.2 0.00 1.01 1.01 69 1019.1
20260509223756 50 47 1.7 8.7 0.00 1.01 1.01 68 1019.1
20260509223301 51 61 3.5 8.7 0.00 1.01 1.01 68 1019.0
20260509222807 51 49 3.5 9.6 0.00 1.01 1.01 66 1019.1
20260509222306 51 68 4.3 9.6 0.00 1.01 1.01 65 1019.0
20260509221755 51 27 4.3 7.8 0.00 1.01 1.01 65 1018.9
20260509221257 51 48 3.5 7.8 0.00 1.01 1.01 65 1018.8
20260509221130 51 45 3.5 8.7 0.00 1.01 1.01 65 1018.7
20260509220255 51 52 2.6 8.7 0.00 1.01 1.01 65 1018.7
20260509215754 52 41 3.5 8.7 0.00 1.01 1.01 66 1018.5
20260509215254 52 59 1.7 7.8 0.00 1.01 1.01 66 1018.5
20260509214754 52 34 1.7 7.8 0.00 1.01 1.01 66 1018.4
20260509214254 52 13 1.7 5.2 0.00 1.01 1.01 66 1018.4
20260509213754 52 69 0.9 1.7 0.00 1.01 1.01 65 1018.3
20260509213254 53 75 0.9 1.7 0.00 1.01 1.01 65 1018.3
20260509212756 53 75 0.0 1.7 0.00 1.01 1.01 64 1018.4
20260509212721 53 75 0.9 2.6 0.00 1.01 1.01 64 1018.3
20260509211754 53 75 0.9 2.6 0.00 1.01 1.01 65 1018.2
20260509211258 53 76 1.7 1.7 0.00 1.01 1.01 64 1018.1
20260509210801 54 76 0.0 2.6 0.00 1.01 1.01 63 1018.1
20260509210255 54 76 0.9 2.6 0.00 1.01 1.01 63 1018.0
20260509205754 54 76 0.9 1.7 0.00 1.01 1.01 63 1018.1
20260509205253 54 76 0.9 2.6 0.00 1.01 1.01 63 1017.9
20260509204752 55 76 0.9 3.5 0.00 1.01 1.01 63 1018.0
20260509204255 55 76 1.7 3.5 0.00 1.01 1.01 62 1017.9
20260509203752 55 76 0.9 3.5 0.00 1.01 1.01 62 1017.8
20260509203611 55 78 1.7 2.6 0.00 1.01 1.01 62 1018.0
20260509202754 56 76 1.7 2.6 0.00 1.01 1.01 61 1017.9
20260509202255 56 76 1.7 2.6 0.00 1.01 1.01 61 1017.8
20260509201753 56 76 1.7 3.5 0.00 1.01 1.01 60 1017.7
20260509201250 57 76 1.7 3.5 0.00 1.01 1.01 60 1017.7
20260509200750 57 76 1.7 3.5 0.00 1.01 1.01 59 1017.7
20260509200253 57 76 0.9 2.6 0.00 1.01 1.01 59 1017.6
20260509195750 58 80 0.9 4.3 0.00 1.01 1.01 58 1017.6
20260509195250 58 80 0.9 4.3 0.00 1.01 1.01 58 1017.6
20260509194751 59 71 1.7 3.5 0.00 1.01 1.01 57 1017.6
20260509194255 59 96 0.9 3.5 0.00 1.01 1.01 56 1017.5
20260509193748 60 96 0.9 3.5 0.00 1.01 1.01 55 1017.4
20260509193246 60 96 0.9 3.5 0.00 1.01 1.01 54 1017.3
20260509192746 61 96 1.7 1.7 0.00 1.01 1.01 53 1017.2
20260509192251 61 94 0.9 3.5 0.00 1.01 1.01 53 1017.2
20260509191748 61 94 1.7 3.5 0.00 1.01 1.01 52 1017.2
20260509191246 61 93 4.3 4.3 0.00 1.01 1.01 51 1017.2
20260509190747 61 93 4.3 4.3 0.00 1.01 1.01 51 1017.1
20260509190245 62 96 1.7 2.6 0.00 1.01 1.01 51 1017.0
20260509185745 0 78 2.6 3.5 0.00 1.01 1.01 1017.0
20260509185246 0 75 2.6 6.1 0.00 1.01 1.01 1016.9
20260509184746 0 100 5.2 6.1 0.00 1.01 1.01 1017.0
20260509184245 0 107 3.5 5.2 0.00 1.01 1.01 1016.9
20260509183738 0 120 3.5 3.5 0.00 1.01 1.01 1016.8
20260509183239 63 120 3.5 7.8 0.00 1.01 1.01 50 1016.7
20260509182736 63 109 4.3 7.8 0.00 1.01 1.01 50 1016.7
20260509182614 64 121 5.2 5.2 0.00 1.01 1.01 50 1016.5
20260509181737 64 114 1.7 1.7 0.00 1.01 1.01 50 1016.6
20260509181237 0 114 1.7 6.1 0.00 1.01 1.01 1016.5
20260509180732 64 106 6.1 6.1 0.00 1.01 1.01 50 1016.4
20260509180232 64 102 0.0 0.0 0.00 1.01 1.01 50 1016.5
20260509175720 65 102 0.0 3.5 0.00 1.01 1.01 47 1016.4
20260509175219 65 79 1.7 3.5 0.00 1.01 1.01 47 1016.4
20260509174719 65 79 0.9 8.7 0.00 1.01 1.01 47 1016.5
20260509174212 65 89 8.7 11.3 0.00 1.01 1.01 47 1016.5
20260509173708 65 68 9.6 11.3 0.00 1.01 1.01 47 1016.4
20260509173204 66 86 3.5 7.8 0.00 1.01 1.01 47 1016.4
20260509172955 67 0.0 0.0 0.00 1.01 1.01 47 1016.4
20260509172206 67 99 5.2 5.2 0.00 1.01 1.01 47 1016.5
20260509171705 67 99 5.2 5.2 0.00 1.01 1.01 47 1016.4
20260509171207 68 58 4.3 4.3 0.00 1.01 1.01 47 1016.4
20260509170703 0 82 6.1 8.7 0.00 1.01 1.01 1016.4
20260509170203 0 130 5.2 8.7 0.00 1.01 1.01 1016.5
20260509165702 68 61 4.3 4.3 0.00 1.01 1.01 47 1016.6
20260509165453 68 61 4.3 5.2 0.00 1.01 1.01 47 1016.6
20260509164702 68 92 4.3 5.2 0.00 1.01 1.01 47 1016.6
20260509164202 0 49 4.3 5.2 0.00 1.01 1.01 1016.6
20260509163702 0 78 3.5 5.2 0.00 1.01 1.01 1016.5
20260509163154 0 97 2.6 5.2 0.00 1.01 1.01 1016.5
20260509162652 69 68 6.1 6.1 0.00 1.01 1.01 43 1016.6